Location: Newark
(54.8972°N, 99.8189°W)
Time: 17:35:20
(UTC+00:00)

Transit 2A - All Passes

Search period start: 22 November 2019 00:00
Search period end: 02 December 2019 00:00
Orbit: 601 x 957 km, 66.7° (Epoch: 21 November)

Date Brightness Start Highest point End Pass type
(mag) Time Alt. Az. Time Alt. Az. Time Alt. Az.
22 Nov - 00:26:09 10° NNW 00:29:58 28° NNE 00:33:47 10° E visible
22 Nov - 02:09:12 10° NW 02:13:34 81° SW 02:18:00 10° SE visible
22 Nov - 03:53:36 10° WNW 03:56:00 15° WSW 03:58:27 10° SW visible
22 Nov - 16:57:55 10° SE 17:00:36 15° ESE 17:03:12 10° ENE daylight
22 Nov - 18:38:15 10° SSW 18:43:06 75° SE 18:47:35 10° NE daylight
22 Nov - 20:22:28 10° W 20:26:38 31° NNW 20:30:35 10° NE daylight
22 Nov - 22:07:56 10° NW 22:11:04 18° N 22:14:08 10° NE daylight
22 Nov - 23:52:00 10° NNW 23:55:38 24° NNE 23:59:14 10° ENE visible
23 Nov - 01:35:04 10° NW 01:39:26 76° NE 01:43:52 10° SE visible
23 Nov - 03:18:52 10° WNW 03:22:06 20° WSW 03:25:23 10° SSW visible
23 Nov - 16:26:01 10° ESE 16:26:44 10° ESE 16:27:27 10° E daylight
23 Nov - 18:04:17 10° SSW 18:09:01 55° SE 18:13:26 10° NE daylight
23 Nov - 19:47:58 10° WSW 19:52:21 37° NW 19:56:30 10° NE daylight
23 Nov - 21:33:24 10° NW 21:36:38 19° N 21:39:48 10° NE daylight
23 Nov - 23:17:50 10° NW 23:21:16 22° NNE 23:24:40 10° ENE visible
24 Nov - 01:00:57 10° NW 01:05:16 57° NE 01:09:37 10° ESE visible
24 Nov - 02:44:24 10° WNW 02:48:09 28° WSW 02:51:58 10° S visible
24 Nov - 17:30:26 10° S 17:34:58 40° ESE 17:39:12 10° NE daylight
24 Nov - 19:13:32 10° WSW 19:18:06 46° NW 19:22:24 10° NE daylight
24 Nov - 20:58:50 10° WNW 21:02:14 20° NNW 21:05:32 10° NE daylight
24 Nov - 22:43:36 10° NW 22:46:52 20° NNE 22:50:06 10° ENE daylight
25 Nov - 00:26:51 10° NW 00:31:03 44° NE 00:35:17 10° ESE visible
25 Nov - 02:10:06 10° NW 02:14:09 39° WSW 02:18:18 10° S visible
25 Nov - 16:56:46 10° S 17:00:57 30° ESE 17:04:54 10° ENE daylight
25 Nov - 18:39:11 10° WSW 18:43:53 59° NW 18:48:18 10° NE daylight
25 Nov - 20:24:14 10° WNW 20:27:51 22° NNW 20:31:20 10° NE daylight
25 Nov - 22:09:19 10° NW 22:12:28 19° N 22:15:34 10° NE daylight
25 Nov - 23:52:45 10° NW 23:56:47 35° NNE 00:00:51 10° E visible
26 Nov - 01:35:52 10° NW 01:40:07 55° SW 01:44:29 10° SSE visible
26 Nov - 16:23:20 10° SSE 16:26:59 22° ESE 16:30:28 10° ENE daylight
26 Nov - 18:04:57 10° SW 18:09:43 78° NW 18:14:12 10° NE daylight
26 Nov - 19:49:39 10° W 19:53:29 25° NNW 19:57:11 10° NNE daylight
26 Nov - 21:34:57 10° NW 21:38:02 18° N 21:41:04 10° NE daylight
26 Nov - 23:18:38 10° NW 23:22:29 29° NNE 23:26:21 10° E visible
27 Nov - 01:01:41 10° NW 01:06:03 76° SW 01:10:29 10° SE visible
27 Nov - 02:46:16 10° W 02:48:27 14° WSW 02:50:40 10° SW visible
27 Nov - 15:50:13 10° SSE 15:53:04 16° ESE 15:55:48 10° ENE daylight
27 Nov - 17:30:48 10° SW 17:35:36 80° SE 17:40:03 10° NE daylight
27 Nov - 19:15:06 10° W 19:19:10 29° NNW 19:23:03 10° NE daylight
27 Nov - 21:00:31 10° NW 21:03:37 18° N 21:06:39 10° NE daylight
27 Nov - 22:44:30 10° NNW 22:48:10 25° NNE 22:51:49 10° E daylight
28 Nov - 00:27:32 10° NW 00:31:55 81° NE 00:36:23 10° SE visible
28 Nov - 02:11:26 10° WNW 02:14:33 19° WSW 02:17:43 10° SSW visible
28 Nov - 15:17:54 10° ESE 15:19:11 11° ESE 15:20:27 10° E daylight
28 Nov - 16:56:47 10° SSW 17:01:30 59° SE 17:05:54 10° NE daylight
28 Nov - 18:40:35 10° W 18:44:52 35° NNW 18:48:57 10° NE daylight
28 Nov - 20:26:01 10° NW 20:29:11 19° N 20:32:18 10° NE daylight
28 Nov - 22:10:20 10° NW 22:13:48 22° NNE 22:17:15 10° ENE daylight
28 Nov - 23:53:25 10° NW 23:57:45 61° NE 00:02:09 10° ESE visible
29 Nov - 01:36:57 10° WNW 01:40:36 26° WSW 01:44:21 10° S visible
29 Nov - 16:22:55 10° SSW 16:27:27 43° ESE 16:31:41 10° NE daylight
29 Nov - 18:06:08 10° WSW 18:10:37 44° NW 18:14:51 10° NE daylight
29 Nov - 19:51:28 10° WNW 19:54:46 20° NNW 19:58:01 10° NE daylight
29 Nov - 21:36:08 10° NW 21:39:25 20° NNE 21:42:41 10° ENE daylight
29 Nov - 23:19:20 10° NW 23:23:33 46° NE 23:27:50 10° ESE visible
30 Nov - 01:02:36 10° NW 01:06:37 37° WSW 01:10:45 10° S visible
30 Nov - 15:49:13 10° S 15:53:26 31° ESE 15:57:24 10° ENE daylight
30 Nov - 17:31:46 10° WSW 17:36:24 56° NW 17:40:45 10° NE daylight
30 Nov - 19:16:52 10° WNW 19:20:23 22° NNW 19:23:48 10° NE daylight
30 Nov - 21:01:52 10° NW 21:05:01 19° N 21:08:07 10° NE daylight
30 Nov - 22:45:13 10° NW 22:49:18 37° NNE 22:53:25 10° ESE daylight
01 Dec - 00:28:21 10° NW 00:32:35 51° SW 00:36:56 10° SSE visible
01 Dec - 15:15:43 10° SSE 15:19:27 23° ESE 15:23:00 10° ENE daylight
01 Dec - 16:57:30 10° SW 17:02:13 73° NW 17:06:39 10° NE daylight
01 Dec - 18:42:17 10° WNW 18:46:01 24° NNW 18:49:39 10° NNE daylight
01 Dec - 20:27:31 10° NW 20:30:35 18° N 20:33:37 10° NE daylight
01 Dec - 22:11:07 10° NW 22:15:01 30° NNE 22:18:56 10° E daylight
